Temperature
9 10 10 10 10 10 10 10 10 10 10 10 10 10 10 10 10 10 10 10 10 10 10 10 10 10 10 10 10 10 10 10 10 10 10 10 10 10 10 10 9 10 9
8 9 9 9 9 10 10 10 10 10 10 10 10 9 10 10 10 10 10 10 10 10 10 10 10 10 10 10 10 9 9 9 9 9 9 9 9 9 9 9 9 9 9
8 9 9 9 9 9 9 9 9 9 9 9 9 9 9 9 9 9 9 9 9 9 10 9 9 9 9 9 9 9 9 9 9 9 9 9 9 9 9 9 9 9 9
8 8 8 9 9 9 9 9 9 9 9 9 9 9 9 9 9 9 9 9 9 9 9 9 9 9 9 9 9 9 9 9 9 9 9 9 8 8 8 8 8 8 8
7 8 8 8 8 8 9 9 9 9 9 9 8 8 8 9 9 9 9 9 9 9 9 9 9 9 9 9 9 9 9 8 8 8 8 8 8 8 8 7 8 8 8
7 7 8 8 8 8 8 8 8 8 8 8 8 8 8 8 8 8 8 8 8 8 8 8 8 8 8 8 8 8 8 8 8 8 8 8 8 7 7 7 7 7 7
6 7 7 7 7 8 8 8 8 8 8 8 8 8 8 8 8 8 8 8 8 8 8 8 8 8 8 8 8 8 8 8 8 8 7 7 7 7 7 7 6 6 6
6 6 7 7 7 7 7 7 8 8 8 8 8 8 7 7 7 7 7 7 7 8 8 8 8 7 7 7 8 7 7 7 7 7 7 7 7 7 7 6 6 5 5
5 6 6 6 6 7 7 7 7 7 7 7 7 7 7 7 7 7 7 7 7 7 7 7 7 7 7 7 7 7 7 7 7 7 7 7 6 6 6 6 5 5 4
4 5 5 6 6 6 6 6 7 7 7 7 7 7 7 7 7 7 6 6 7 7 7 7 7 7 7 7 7 7 7 6 6 6 6 6 6 6 6 5 5 5 4
4 4 5 5 5 5 5 5 6 6 6 6 6 6 6 6 6 6 6 6 6 6 6 6 6 6 6 6 6 6 6 6 6 6 6 6 5 5 5 5 5 4 4
3 3 4 4 4 4 5 5 5 5 6 6 6 6 6 6 6 6 6 6 6 6 6 6 6 6 6 6 6 6 6 6 5 5 5 5 5 5 5 5 4 4 4
2 3 3 3 3 4 4 5 5 5 5 5 5 5 5 5 5 6 5 5 5 5 5 5 5 5 5 5 5 5 5 5 5 5 5 5 4 4 4 4 4 4 3
2 2 2 2 3 3 3 4 4 4 4 4 5 5 5 5 5 5 5 5 5 5 5 5 5 5 5 5 5 5 5 4 4 4 4 4 4 4 4 3 3 3 3
1 1 1 2 2 2 3 3 3 4 4 4 4 4 4 4 4 4 4 4 4 4 4 4 4 4 4 4 4 4 4 4 4 4 4 3 3 3 3 3 3 2 2
0 0 1 1 1 2 2 2 3 3 3 3 3 3 4 4 4 4 4 4 4 4 4 4 4 4 4 4 3 3 3 3 3 3 3 3 3 2 2 2 2 2 2
-0 -0 0 0 1 1 1 2 2 2 2 3 3 3 3 3 3 3 3 3 3 3 3 3 3 3 3 3 3 3 3 3 3 3 2 2 2 2 2 2 2 2 2
-1 -1 -0 0 0 1 1 1 2 2 2 2 2 2 2 2 2 2 3 3 3 3 3 3 3 2 2 2 2 2 2 2 2 2 2 2 2 2 1 1 1 1 1
-1 -1 -1 -0 0 0 0 1 1 1 1 2 2 2 2 2 2 2 2 2 2 2 2 2 2 2 2 2 2 2 2 2 2 1 1 1 1 1 1 1 1 1 1
-1 -1 -0 -0 0 0 -0 0 0 1 1 1 1 1 1 1 1 1 1 2 2 2 2 2 2 2 2 1 1 1 1 1 1 1 1 1 1 1 1 1 0 0 1
-1 -1 -1 -1 -0 -0 -0 -0 -0 0 0 0 1 1 1 1 1 1 1 1 1 1 1 1 1 1 1 1 1 1 1 1 1 1 0 0 0 0 0 0 0 0 0
-1 -1 -1 -1 -1 -1 -1 -1 -1 -0 -0 0 0 0 1 1 1 1 0 0 0 1 1 0 0 0 0 0 0 0 0 0 0 0 -0 -0 -0 -0 -0 -0 -0 -0 -0
-2 -2 -2 -2 -1 -1 -1 -1 -1 -1 -1 -0 -0 -0 0 0 0 0 -0 -0 -0 0 -0 -0 -0 -0 -0 -0 -0 -0 -0 -0 -0 -0 -1 -1 -1 -1 -1 -1 -1 -1 -1
-2 -2 -2 -2 -2 -2 -2 -2 -2 -1 -1 -1 -1 -1 -0 -1 -1 -1 -1 -1 -1 -1 -1 -1 -1 -1 -1 -1 -1 -1 -1 -1 -1 -1 -1 -1 -1 -1 -1 -1 -1 -1 -2
-3 -2 -3 -2 -2 -2 -2 -2 -2 -2 -2 -1 -1 -1 -1 -1 -1 -1 -1 -1 -1 -1 -1 -1 -1 -1 -1 -1 -1 -1 -1 -1 -1 -1 -1 -2 -2 -2 -2 -2 -2 -2 -2
-3 -3 -3 -3 -3 -2 -2 -2 -2 -2 -2 -2 -2 -2 -2 -2 -2 -2 -2 -2 -1 -1 -1 -1 -2 -2 -2 -2 -2 -2 -2 -2 -2 -2 -2 -2 -2 -2 -2 -2 -2 -3 -3
Wind_Speed
9 7 7 6 6 6 6 7 8 8 7 6 6 5 5 4 4 5 7 9 9 9 8 6 6 6 5 5 4 3 3 2 2 1 1 1 1 1 1 2 2 1 1
8 7 6 5 6 7 7 7 8 8 8 7 6 4 4 4 4 4 6 8 9 9 8 7 6 6 5 5 5 4 3 2 2 2 1 1 2 1 2 2 2 2 1
10 8 7 7 7 7 7 7 8 8 8 7 5 3 3 2 3 4 5 6 9 9 9 8 7 7 6 6 6 6 5 4 3 2 3 2 3 1 1 2 2 2 1
9 8 7 7 7 8 6 6 6 7 7 8 7 8 7 6 6 5 5 5 7 8 9 8 8 7 6 6 6 6 4 5 4 2 2 2 2 2 1 1 1 2 2
8 8 7 8 7 6 6 6 5 6 6 7 9 9 7 5 3 3 5 5 5 6 8 8 7 7 6 6 6 6 5 4 5 4 2 2 1 1 2 3 2 2 2
7 7 6 6 5 4 4 5 5 5 6 7 7 8 8 6 5 5 6 5 4 4 6 7 7 7 6 6 6 6 6 4 4 4 3 3 3 3 3 3 3 3 2
5 5 5 4 4 5 5 5 6 6 6 7 7 8 8 8 8 7 7 5 4 4 6 5 6 6 6 6 6 6 5 5 5 5 4 3 3 3 3 3 3 3 2
5 5 4 4 4 5 5 5 6 6 6 7 7 6 6 5 5 6 5 6 5 5 5 6 6 6 6 6 6 5 5 5 5 5 5 4 4 3 3 3 3 2 2
5 5 4 4 4 4 4 4 5 5 6 6 6 6 6 6 5 5 4 4 4 3 5 5 5 5 6 6 6 5 5 5 5 5 5 4 3 3 3 3 4 4 3
6 6 4 4 3 2 2 1 2 4 4 5 5 5 5 6 5 5 5 5 4 4 5 5 4 4 5 5 5 5 5 5 5 4 5 4 3 3 3 3 3 4 4
5 5 5 4 3 2 1 0 1 2 3 4 4 4 4 4 5 5 5 5 4 4 5 5 5 5 5 5 5 5 5 5 5 4 5 5 4 4 3 3 3 3 4
6 6 6 5 3 2 1 0 1 1 2 3 4 4 4 4 5 5 5 5 5 4 4 5 5 5 5 5 6 6 5 6 6 6 5 5 4 4 4 3 4 4 4
7 7 6 6 5 4 3 2 1 1 1 2 3 4 4 4 5 5 4 4 4 4 4 4 5 5 5 5 5 5 5 5 6 6 6 6 5 5 4 4 4 4 4
7 6 6 6 5 5 4 3 3 2 1 1 2 3 4 4 4 4 4 4 4 4 4 4 5 5 4 5 5 5 5 5 4 5 5 6 6 6 5 5 5 4 4
8 8 7 7 6 5 5 4 3 3 1 0 1 2 2 3 3 3 3 3 3 4 4 4 3 3 4 5 5 5 5 5 4 4 4 5 6 7 6 5 5 5 4
8 8 8 8 8 6 5 4 4 3 2 1 2 1 1 2 2 3 3 3 3 3 3 3 3 3 4 5 6 5 5 4 4 4 4 4 5 7 8 7 7 7 5
8 8 8 8 8 7 4 4 4 3 2 2 2 2 1 1 2 2 3 3 3 3 3 3 4 4 4 6 6 6 4 4 4 4 4 4 4 5 4 5 5 6 7
7 8 8 8 7 6 5 4 3 3 2 2 2 2 1 2 2 2 3 3 3 4 4 4 4 4 4 5 5 4 3 3 3 4 4 4 4 5 4 4 3 3 3
7 7 7 7 6 6 5 4 3 3 3 3 3 2 2 2 2 2 3 3 3 3 3 4 4 4 4 5 4 3 2 2 2 2 3 3 4 6 5 3 3 2 2
7 7 6 6 5 5 4 3 3 3 4 4 3 3 2 2 3 3 2 2 3 3 3 3 3 4 4 5 4 3 2 3 2 2 2 3 4 5 5 3 3 3 2
7 6 6 5 4 4 3 3 3 4 5 4 3 2 1 2 2 2 1 2 2 2 2 2 2 3 4 4 4 4 2 3 3 2 2 2 3 4 3 3 3 3 1
7 6 5 5 4 3 3 3 4 5 4 3 2 2 1 1 1 1 1 2 2 2 2 2 1 1 2 3 4 4 3 3 3 3 2 2 3 2 2 1 2 2 1
6 5 5 5 5 4 3 4 5 5 4 3 2 1 1 1 1 1 1 2 2 2 2 2 2 2 1 2 3 3 3 3 2 2 2 2 2 1 1 2 2 2 2
6 5 5 5 5 5 4 4 5 4 3 2 2 1 0 1 0 1 2 2 2 3 3 2 2 2 1 1 1 2 2 2 2 2 3 3 3 2 3 2 2 1 1
5 5 5 5 6 5 4 4 4 3 2 2 2 1 1 1 1 1 2 3 4 4 4 4 3 3 3 3 3 2 2 2 2 3 3 2 2 2 2 2 1 1 1
5 5 5 5 5 5 5 4 3 2 2 2 1 1 1 1 1 1 1 2 2 3 3 4 3 3 3 3 2 2 3 4 5 4 2 2 2 2 1 1 0 0 0
Wind_Direction
265 263 254 246 238 223 217 214 207 197 181 181 183 185 195 198 201 203 194 194 192 189 184 183 179 177 183 186 177 173 168 176 155 126 322 311 253 223 216 194 177 174 148
272 266 259 245 237 226 218 217 212 202 191 190 186 185 183 194 202 201 194 195 193 190 191 185 185 184 184 184 184 177 171 185 177 161 153 282 286 269 232 212 199 202 158
256 260 254 247 238 231 223 220 218 209 196 185 169 157 148 153 185 197 200 198 196 194 192 190 189 190 189 195 193 188 187 190 203 192 172 183 226 269 270 223 211 201 189
256 256 251 250 237 234 230 223 221 212 196 183 180 180 190 200 205 199 200 196 197 195 192 190 191 192 192 198 201 196 199 186 197 209 212 196 178 187 256 275 229 210 206
260 256 250 247 240 231 225 219 215 210 195 187 187 190 200 205 200 189 187 195 198 197 193 189 190 193 196 196 197 196 197 200 200 195 194 199 203 197 201 254 266 260 228
270 260 256 251 243 237 227 215 207 207 193 187 189 194 198 194 191 194 193 196 201 198 192 189 191 193 194 197 200 199 198 202 201 198 194 194 193 192 196 223 247 259 259
285 277 270 252 243 240 233 222 205 204 196 190 194 198 199 196 199 198 194 192 199 205 199 193 190 191 194 197 195 196 199 197 196 199 204 206 217 206 195 202 235 254 278
301 293 278 263 251 245 233 225 210 203 196 195 198 195 197 200 204 200 195 197 203 205 192 190 192 192 188 194 193 196 203 197 198 203 200 203 211 214 209 199 201 253 274
310 298 290 282 271 259 242 224 208 203 200 200 196 194 196 198 200 192 190 194 196 192 181 185 191 194 188 188 189 200 201 196 201 203 202 207 210 210 217 204 196 205 240
325 320 317 315 306 278 270 243 203 196 195 189 189 194 195 194 190 182 186 190 190 182 181 187 191 195 189 184 183 193 195 195 202 202 198 206 208 208 209 206 204 210 220
326 324 330 331 319 321 332 237 204 185 186 184 182 186 193 190 186 188 193 191 190 185 188 189 190 192 188 185 183 194 194 195 201 204 201 210 203 202 208 204 200 205 212
340 338 341 346 345 337 342 350 242 209 202 192 182 187 190 188 191 194 197 190 192 190 195 188 187 191 189 190 189 193 197 197 202 206 202 208 203 200 205 207 210 212 211
347 348 353 355 354 352 355 356 327 256 214 190 187 190 191 193 201 200 196 192 190 191 198 189 189 192 194 196 201 197 198 201 204 204 204 207 198 207 210 211 220 224 220
344 349 351 351 351 351 351 348 345 334 293 206 197 200 201 202 206 201 194 191 190 195 201 197 197 194 195 199 202 195 194 197 203 209 209 209 207 212 207 214 217 219 215
344 345 343 343 346 346 345 343 343 343 333 297 239 230 219 206 195 188 190 188 191 203 193 189 190 191 197 201 197 190 191 195 194 206 213 213 211 214 214 216 212 209 214
333 334 337 339 338 333 330 335 337 338 340 325 290 268 227 207 195 188 183 175 185 183 175 183 185 199 214 213 211 193 189 192 194 205 218 216 215 220 222 225 223 215 215
326 328 330 326 322 321 316 321 325 336 345 319 298 287 260 217 205 192 180 182 183 179 178 185 188 206 216 212 210 204 191 191 200 205 213 220 219 219 215 222 226 230 230
324 323 322 320 319 317 323 323 327 339 340 324 309 297 266 236 217 196 196 195 190 187 188 192 195 201 213 210 208 198 183 193 205 212 213 215 220 211 207 201 209 226 234
311 310 309 308 314 321 326 333 322 328 330 314 298 285 263 240 225 214 204 197 190 197 195 190 190 193 206 206 197 182 172 183 206 219 223 214 206 203 197 184 197 232 270
317 318 319 321 323 323 331 341 332 328 316 301 293 283 259 230 229 223 215 204 197 203 196 196 194 196 203 204 197 187 179 183 195 218 208 208 202 190 191 183 190 217 250
320 326 329 328 319 322 332 334 332 316 302 296 289 289 272 241 227 213 203 189 188 178 179 192 205 202 203 205 206 205 191 195 194 201 204 218 207 189 198 198 199 221 226
333 335 339 334 331 334 338 333 318 306 307 306 300 298 290 264 230 173 182 175 173 175 179 185 207 211 209 209 216 219 221 211 198 199 201 208 208 184 173 182 189 182 138
330 330 331 330 333 337 340 323 314 320 327 332 324 310 306 281 211 173 178 177 179 186 194 195 209 222 218 226 234 228 214 202 189 190 185 172 171 157 137 127 103 100 109
326 329 332 331 327 330 334 318 316 321 328 329 322 319 318 296 240 197 197 193 197 199 199 202 211 218 223 231 229 206 193 175 161 148 148 139 128 92 88 89 67 55 100
324 329 327 321 319 322 326 323 323 326 328 328 328 327 308 264 266 254 229 222 221 217 202 200 199 198 220 238 242 194 186 171 154 124 116 110 103 95 79 60 50 50 57
322 326 327 324 321 325 325 327 329 329 323 330 327 309 296 277 249 255 298 291 249 241 226 214 203 214 231 227 218 198 177 159 145 129 141 146 147 152 157 158 100 48 35
Height
1453 1454 1454 1455 1456 1457 1458 1460 1461 1463 1465 1468 1470 1473 1476 1479 1482 1485 1487 1490 1492 1494 1496 1498 1500 1502 1504 1505 1507 1508 1509 1510 1511 1512 1512 1512 1513 1513 1513 1514 1515 1515 1515
1447 1448 1449 1449 1450 1452 1453 1455 1456 1458 1460 1463 1466 1469 1472 1475 1478 1481 1483 1485 1487 1490 1492 1494 1496 1498 1500 1502 1503 1504 1505 1506 1508 1509 1509 1509 1510 1509 1510 1510 1510 1511 1512
1442 1443 1443 1444 1446 1447 1448 1449 1451 1453 1455 1458 1462 1465 1468 1470 1473 1475 1478 1480 1483 1485 1487 1489 1492 1493 1496 1497 1499 1500 1501 1502 1504 1505 1507 1506 1505 1505 1505 1506 1506 1507 1507
1438 1439 1439 1439 1440 1442 1443 1445 1446 1447 1450 1453 1456 1459 1461 1463 1466 1470 1473 1475 1478 1480 1482 1485 1487 1489 1491 1493 1494 1496 1497 1499 1499 1501 1502 1503 1502 1503 1501 1502 1502 1502 1503
1434 1434 1434 1435 1436 1437 1439 1440 1441 1443 1445 1448 1451 1454 1457 1459 1463 1466 1468 1470 1473 1475 1478 1480 1482 1484 1486 1488 1490 1491 1493 1494 1495 1496 1497 1498 1498 1498 1498 1497 1497 1498 1498
1430 1430 1431 1431 1432 1433 1434 1435 1437 1438 1441 1444 1446 1449 1452 1455 1458 1460 1463 1466 1468 1470 1473 1475 1477 1479 1481 1483 1485 1487 1488 1490 1491 1492 1493 1493 1493 1493 1494 1493 1492 1492 1493
1426 1426 1426 1427 1428 1429 1430 1431 1432 1434 1436 1439 1442 1445 1447 1450 1453 1456 1458 1461 1463 1465 1467 1470 1472 1474 1476 1479 1481 1482 1483 1485 1486 1487 1488 1489 1489 1490 1490 1489 1488 1488 1487
1424 1423 1423 1424 1424 1425 1425 1426 1427 1429 1432 1435 1438 1440 1443 1446 1449 1452 1454 1456 1458 1461 1463 1465 1467 1470 1472 1474 1475 1477 1478 1479 1481 1482 1483 1484 1485 1485 1485 1485 1485 1483 1483
1423 1422 1421 1421 1421 1422 1422 1422 1424 1426 1429 1431 1434 1437 1440 1442 1445 1447 1450 1452 1454 1456 1459 1461 1463 1465 1467 1469 1470 1471 1473 1474 1476 1477 1478 1479 1480 1481 1481 1481 1482 1482 1479
1422 1421 1420 1419 1419 1420 1420 1421 1422 1423 1425 1428 1431 1434 1436 1439 1441 1443 1445 1448 1450 1452 1454 1456 1458 1460 1462 1463 1465 1466 1468 1469 1470 1472 1473 1473 1474 1476 1477 1477 1477 1477 1477
1422 1420 1418 1418 1418 1418 1418 1419 1420 1421 1423 1425 1428 1430 1433 1435 1437 1439 1441 1444 1446 1448 1449 1451 1454 1455 1457 1458 1460 1461 1463 1464 1465 1467 1468 1469 1470 1471 1471 1472 1472 1472 1472
1422 1419 1417 1416 1416 1416 1417 1417 1418 1419 1421 1423 1425 1427 1429 1431 1433 1435 1438 1440 1441 1443 1445 1447 1449 1450 1452 1454 1455 1456 1458 1459 1460 1462 1463 1463 1465 1465 1466 1467 1467 1467 1467
1421 1419 1417 1416 1415 1415 1415 1416 1416 1418 1419 1421 1422 1424 1426 1428 1430 1432 1433 1435 1437 1439 1441 1442 1444 1445 1447 1449 1450 1451 1453 1454 1456 1457 1458 1459 1460 1460 1461 1462 1462 1462 1462
1423 1421 1418 1417 1415 1415 1414 1415 1415 1416 1417 1418 1419 1420 1422 1424 1426 1428 1430 1431 1433 1434 1436 1438 1439 1440 1442 1444 1445 1446 1448 1449 1451 1452 1453 1454 1455 1455 1456 1456 1457 1457 1457
1423 1421 1418 1416 1416 1415 1414 1414 1414 1414 1414 1415 1416 1417 1419 1420 1422 1424 1425 1427 1429 1430 1432 1433 1434 1436 1438 1439 1441 1442 1443 1444 1445 1447 1448 1449 1449 1450 1451 1452 1452 1452 1452
1423 1421 1418 1416 1415 1414 1413 1412 1412 1412 1412 1412 1413 1414 1415 1417 1418 1420 1421 1423 1425 1426 1427 1429 1430 1432 1434 1436 1437 1438 1439 1440 1441 1441 1442 1443 1444 1444 1446 1446 1447 1448 1447
1423 1421 1418 1416 1414 1412 1411 1409 1409 1410 1410 1410 1411 1411 1412 1413 1415 1416 1418 1419 1421 1422 1423 1425 1426 1428 1430 1432 1433 1435 1435 1435 1436 1437 1437 1438 1438 1440 1440 1441 1441 1442 1442
1423 1420 1418 1415 1413 1411 1408 1407 1407 1407 1407 1407 1408 1409 1410 1411 1412 1413 1414 1416 1417 1419 1420 1421 1423 1425 1426 1428 1429 1430 1431 1431 1432 1432 1432 1433 1433 1434 1436 1436 1436 1436 1436
1422 1419 1416 1413 1411 1409 1407 1405 1405 1405 1405 1405 1406 1407 1407 1408 1409 1410 1411 1413 1414 1415 1416 1418 1419 1421 1422 1424 1425 1427 1427 1427 1427 1428 1428 1428 1428 1429 1430 1431 1431 1431 1431
1419 1416 1413 1411 1409 1407 1406 1404 1403 1403 1403 1403 1404 1404 1405 1405 1406 1407 1408 1409 1411 1412 1413 1414 1416 1417 1419 1420 1422 1423 1423 1423 1424 1424 1424 1424 1424 1425 1426 1426 1426 1426 1426
1417 1414 1411 1408 1407 1406 1405 1403 1402 1401 1401 1401 1402 1402 1402 1403 1404 1404 1405 1406 1407 1409 1410 1411 1413 1414 1415 1417 1418 1419 1420 1420 1420 1420 1420 1421 1421 1421 1422 1422 1423 1423 1423
1414 1411 1409 1406 1405 1404 1403 1401 1400 1400 1400 1399 1399 1399 1399 1400 1400 1401 1402 1403 1405 1406 1407 1408 1409 1411 1412 1414 1415 1416 1417 1417 1417 1417 1417 1418 1418 1418 1418 1418 1419 1419 1419
1412 1410 1407 1405 1403 1402 1401 1399 1398 1398 1397 1397 1396 1396 1397 1397 1398 1398 1399 1400 1402 1402 1403 1405 1406 1407 1409 1411 1412 1413 1414 1414 1415 1415 1415 1416 1416 1415 1415 1416 1416 1416 1416
1411 1409 1406 1403 1401 1400 1399 1398 1397 1396 1395 1395 1395 1395 1395 1395 1396 1396 1397 1398 1398 1399 1400 1401 1402 1404 1405 1407 1408 1410 1410 1411 1412 1412 1413 1413 1414 1413 1413 1413 1414 1414 1415
1409 1407 1404 1402 1400 1399 1398 1397 1396 1395 1394 1393 1393 1393 1393 1393 1394 1394 1395 1395 1396 1396 1397 1398 1400 1401 1403 1405 1406 1407 1407 1408 1409 1409 1410 1410 1411 1411 1411 1412 1412 1413 1413
1407 1405 1403 1401 1399 1398 1396 1395 1395 1394 1393 1392 1392 1392 1392 1392 1392 1392 1393 1393 1394 1395 1396 1397 1399 1400 1402 1403 1403 1405 1406 1406 1407 1407 1407 1408 1409 1409 1410 1410 1411 1411 1411